Date String (YYYY-MM-DD hh:mm:ss) UTC,Instrument flags,absolute air pressure of the measurement (hPa),sample flow rate (lpm),inlet stack bypass flow (lpm),air temperature of the measurement (°C),ambient temperature measured by the external sensor (°C),aerosol sample conditioner tube jacket temperature (°C),OPC LED temperature (°C),internal box temperature (°C),relative humidity of the measurement (%),span deviation,mass concentration of particles derived from Lorenz-Mie calculation of OPC scattering (μg/m³),mass concentration of particles derived from Lorenz-Mie calculation of OPC scattering (μg/m³),mass concentration of particles derived from Lorenz-Mie calculation of OPC scattering (μg/m³)
DateTimeUTC,F1_M11,P_M11,Q1_M11,Q2_M11,T1_M11,T2_M11,T3_M11,T4_M11,T5_M11,U1_M11,ZSPAN_M11,X2_M11,X0_M11,X1_M11
2024-03-29 12:00:00,SystemResetWarning,0821.8,5.00,000.00,020.4,019.4,000.0,029.2,022.2,20.2,0000.0,0003.17,0008.53,0002.19
2024-03-29 12:01:00,SystemResetWarning,0821.8,4.99,000.00,020.4,019.4,000.0,029.2,022.2,20.3,0000.0,0003.21,0008.64,0002.26
2024-03-29 12:02:00,SystemResetWarning,0821.8,5.00,000.00,020.4,019.4,000.0,029.2,022.2,20.3,0000.0,0003.23,0008.36,0002.30
2024-03-29 12:03:00,SystemResetWarning,0821.8,5.02,000.00,020.4,019.3,000.0,029.2,022.1,20.3,0000.0,0003.27,0008.48,0002.34
2024-03-29 12:04:00,SystemResetWarning,0821.8,5.00,000.00,020.4,019.3,000.0,029.2,022.1,20.4,0000.0,0003.29,0008.28,0002.40
2024-03-29 12:05:00,SystemResetWarning,0821.8,4.99,000.00,020.3,019.3,000.0,029.1,022.1,20.4,0000.0,0003.32,0007.33,0002.45
2024-03-29 12:06:00,SystemResetWarning,0821.8,5.01,000.00,020.3,019.2,000.0,029.1,022.1,20.4,0000.0,0003.34,0007.56,0002.49
2024-03-29 12:07:00,SystemResetWarning,0821.9,5.01,000.00,020.3,019.2,000.0,029.1,022.1,20.3,0000.0,0003.38,0008.40,0002.53
2024-03-29 12:08:00,SystemResetWarning,0821.8,4.99,000.00,020.3,019.2,000.0,029.1,022.0,20.3,0000.0,0003.44,0008.53,0002.58
2024-03-29 12:09:00,SystemResetWarning,0822.0,4.99,000.00,020.3,019.2,000.0,029.1,022.0,20.3,0000.0,0003.44,0008.56,0002.62
2024-03-29 12:10:00,SystemResetWarning,0822.0,5.01,000.00,020.2,019.1,000.0,029.0,022.0,20.4,0000.0,0003.50,0008.46,0002.67
2024-03-29 12:11:00,SystemResetWarning,0822.0,5.01,000.00,020.2,019.1,000.0,029.0,022.0,20.5,0000.0,0003.53,0008.18,0002.70
2024-03-29 12:12:00,SystemResetWarning,0822.0,4.99,000.00,020.2,019.1,000.0,029.0,021.9,20.6,0000.0,0003.49,0008.32,0002.71
2024-03-29 12:13:00,SystemResetWarning,0822.0,4.99,000.00,020.2,019.0,000.0,029.0,021.9,20.7,0000.0,0003.51,0008.58,0002.73
2024-03-29 12:14:00,SystemResetWarning,0822.0,5.01,000.00,020.1,019.0,000.0,029.0,021.9,20.8,0000.0,0003.51,0008.52,0002.76
2024-03-29 12:15:00,SystemResetWarning,0822.0,5.01,000.00,020.1,019.0,000.0,028.9,021.8,20.9,0000.0,0003.53,0008.54,0002.78
2024-03-29 12:16:00,SystemResetWarning,0822.0,4.99,000.00,020.1,019.0,000.0,028.9,021.8,20.9,0000.0,0003.54,0008.73,0002.80
2024-03-29 12:17:00,SystemResetWarning,0822.0,4.99,000.00,020.1,019.0,000.0,028.9,021.8,20.9,0000.0,0003.56,0008.63,0002.79
2024-03-29 12:18:00,SystemResetWarning,0822.0,5.02,000.00,020.1,019.0,000.0,028.9,021.8,20.8,0000.0,0003.56,0008.27,0002.79
2024-03-29 12:19:00,SystemResetWarning,0822.0,5.01,000.00,020.1,019.0,000.0,028.9,021.8,20.8,0000.0,0003.52,0008.29,0002.78
2024-03-29 12:20:00,SystemResetWarning,0821.9,5.00,000.00,020.0,019.0,000.0,028.8,021.8,20.9,0000.0,0003.55,0008.34,0002.78
2024-03-29 12:21:00,SystemResetWarning,0822.0,4.99,000.00,020.0,019.0,000.0,028.8,021.8,20.9,0000.0,0003.55,0008.53,0002.77
2024-03-29 12:22:00,SystemResetWarning,0822.0,5.00,000.00,020.0,019.0,000.0,028.8,021.8,20.9,0000.0,0003.54,0009.37,0002.76
2024-03-29 12:23:00,SystemResetWarning,0822.0,4.99,000.00,020.0,019.0,000.0,028.8,021.8,20.9,0000.0,0003.53,0009.10,0002.74
2024-03-29 12:24:00,SystemResetWarning,0822.0,5.01,000.00,020.0,019.0,000.0,028.8,021.8,20.9,0000.0,0003.51,0008.87,0002.74
2024-03-29 12:25:00,SystemResetWarning,0822.0,5.00,000.00,020.0,019.1,000.0,028.8,021.8,20.9,0000.0,0003.53,0009.33,0002.72
2024-03-29 12:26:00,SystemResetWarning,0822.0,5.00,000.00,020.0,019.1,000.0,028.7,021.8,20.9,0000.0,0003.54,0009.76,0002.70
2024-03-29 12:27:00,SystemResetWarning,0822.0,5.00,000.00,020.0,019.1,000.0,028.7,021.8,20.9,0000.0,0003.55,0009.61,0002.68
2024-03-29 12:28:00,SystemResetWarning,0822.0,5.00,000.00,020.0,019.2,000.0,028.7,021.8,20.9,0000.0,0003.56,0009.46,0002.67
2024-03-29 12:29:00,SystemResetWarning,0822.0,4.99,000.00,020.0,019.2,000.0,028.7,021.8,20.9,0000.0,0003.55,0009.04,0002.67
2024-03-29 12:30:00,SystemResetWarning,0822.0,4.99,000.00,020.0,019.1,000.0,028.7,021.8,20.9,0000.0,0003.55,0008.89,0002.64
2024-03-29 12:31:00,SystemResetWarning,0822.0,5.00,000.00,020.0,019.1,000.0,028.7,021.8,21.0,0000.0,0003.55,0009.20,0002.60
2024-03-29 12:32:00,SystemResetWarning,0822.1,5.01,000.00,020.0,019.0,000.0,028.7,021.7,21.0,0000.0,0003.51,0009.11,0002.55
2024-03-29 12:33:00,SystemResetWarning,0822.1,5.00,000.00,019.9,019.0,000.0,028.7,021.7,21.0,0000.0,0003.44,0008.13,0002.51
2024-03-29 12:34:00,SystemResetWarning,0822.0,4.99,000.00,019.9,018.9,000.0,028.7,021.7,21.1,0000.0,0003.41,0007.89,0002.49
2024-03-29 12:35:00,SystemResetWarning,0822.0,4.99,000.00,019.9,018.9,000.0,028.7,021.7,21.1,0000.0,0003.42,0008.31,0002.45
2024-03-29 12:36:00,SystemResetWarning,0822.0,5.01,000.00,019.9,018.8,000.0,028.6,021.6,21.1,0000.0,0003.42,0008.30,0002.42
2024-03-29 12:37:00,SystemResetWarning,0822.0,5.00,000.00,019.9,018.8,000.0,028.6,021.6,21.2,0000.0,0003.37,0007.71,0002.39
2024-03-29 12:38:00,SystemResetWarning,0822.0,5.00,000.00,019.8,018.8,000.0,028.6,021.6,21.2,0000.0,0003.32,0007.63,0002.35
2024-03-29 12:39:00,SystemResetWarning,0822.0,5.00,000.00,019.8,018.8,000.0,028.6,021.6,21.2,0000.0,0003.25,0007.45,0002.32
2024-03-29 12:40:00,SystemResetWarning,0822.0,5.00,000.00,019.8,018.7,000.0,028.6,021.6,21.2,0000.0,0003.19,0007.37,0002.29
2024-03-29 12:41:00,SystemResetWarning,0822.0,5.00,000.00,019.8,018.7,000.0,028.6,021.6,21.3,0000.0,0003.17,0007.97,0002.27
2024-03-29 12:42:00,SystemResetWarning,0822.0,5.00,000.00,019.8,018.7,000.0,028.5,021.6,21.3,0000.0,0003.15,0007.70,0002.25
2024-03-29 12:43:00,SystemResetWarning,0822.1,5.00,000.00,019.8,018.8,000.0,028.5,021.6,21.4,0000.0,0003.13,0007.57,0002.24
2024-03-29 12:44:00,SystemResetWarning,0822.1,5.00,000.00,019.8,018.8,000.0,028.5,021.6,21.4,0000.0,0003.15,0007.64,0002.24
2024-03-29 12:45:00,SystemResetWarning,0822.1,4.99,000.00,019.8,018.8,000.0,028.5,021.6,21.4,0000.0,0003.15,0007.66,0002.24
2024-03-29 12:46:00,SystemResetWarning,0822.1,5.00,000.00,019.8,018.9,000.0,028.5,021.6,21.3,0000.0,0003.15,0007.27,0002.25
2024-03-29 12:47:00,SystemResetWarning,0822.1,5.00,000.00,019.8,018.9,000.0,028.5,021.6,21.2,0000.0,0003.13,0006.62,0002.27
2024-03-29 12:48:00,SystemResetWarning,0822.1,5.00,000.00,019.8,018.9,000.0,028.5,021.6,21.2,0000.0,0003.11,0006.40,0002.28
2024-03-29 12:49:00,SystemResetWarning,0822.2,5.00,000.00,019.8,018.8,000.0,028.5,021.5,21.2,0000.0,0003.15,0006.66,0002.30
2024-03-29 12:50:00,SystemResetWarning,0822.2,5.00,000.00,019.7,018.8,000.0,028.5,021.5,21.2,0000.0,0003.19,0006.79,0002.31
2024-03-29 12:51:00,SystemResetWarning,0822.2,5.00,000.00,019.7,018.7,000.0,028.4,021.5,21.2,0000.0,0003.24,0006.82,0002.35
2024-03-29 12:52:00,SystemResetWarning,0822.2,5.01,000.00,019.7,018.7,000.0,028.4,021.4,21.2,0000.0,0003.26,0007.07,0002.39
2024-03-29 12:53:00,SystemResetWarning,0822.2,5.00,000.00,019.7,018.6,000.0,028.4,021.4,21.2,0000.0,0003.27,0007.53,0002.42
2024-03-29 12:54:00,SystemResetWarning,0822.2,5.00,000.00,019.6,018.6,000.0,028.4,021.4,21.2,0000.0,0003.26,0007.46,0002.44
2024-03-29 12:55:00,SystemResetWarning,0822.3,4.99,000.00,019.6,018.5,000.0,028.4,021.3,21.2,0000.0,0003.24,0007.38,0002.45
2024-03-29 12:56:00,SystemResetWarning,0822.2,4.99,000.00,019.6,018.5,000.0,028.4,021.3,21.3,0000.0,0003.25,0007.81,0002.46
2024-03-29 12:57:00,SystemResetWarning,0822.2,5.00,000.00,019.6,018.5,000.0,028.3,021.3,21.3,0000.0,0003.27,0007.90,0002.48
2024-03-29 12:58:00,SystemResetWarning,0822.1,5.00,000.00,019.5,018.4,000.0,028.3,021.3,21.3,0000.0,0003.33,0008.09,0002.50
2024-03-29 12:59:00,SystemResetWarning,0822.1,5.01,000.00,019.5,018.4,000.0,028.3,021.2,21.3,0000.0,0003.37,0008.22,0002.53
